Regional Weather Roundup
Issued by NWS Green Bay, WI

Home | Current Version | Previous Version | Text Only | Print | Product List | Glossary On
Versions: 1 2 3 4 5 6 7 8 9 10 11 12 13 14 15 16 17 18 19 20 21 22 23 24 25 26 27 28 29 30 31 32 33 34 35 36 37 38 39 40 41 42 43 44 45 46 47 48 49 50
000
ASUS43 KGRB 050011
RWRGRB

NORTH-CENTRAL AND NORTHEAST WISCONSIN REGIONAL WEATHER ROUNDUP
NATIONAL WEATHER SERVICE GREEN BAY WI
700 PM CDT TUE AUG 04 2015

WIZ005-009-010>012-018-019-050100-
NORTH CENTRAL WISCONSIN

CITY           SKY/WX    TMP DP  RH WIND       PRES   REMARKS
IRONWOOD       SUNNY     63  50  63 N6        29.99R
MANITOWISH WTR PTSUNNY   64  51  62 N7        30.01R
ARBOR VITAE    PTSUNNY   65  51  60 N6        30.00R
EAGLE RIVER    CLOUDY    65  47  51 N7        30.00R
LAND O LAKES   MOSUNNY   64  49  59 N7        30.01S
RHINELANDER    PTSUNNY   67  51  56 N3        30.00R
PHILLIPS       CLOUDY    67  54  63 CALM      29.99S
ANTIGO         CLOUDY    67  53  61 N5        29.99R
TOMAHAWK       PTSUNNY   67  56  67 CALM      30.00R
MERRILL        NOT AVBL
$$

WIZ013-073-050100-
NORTHEAST WISCONSIN

CITY           SKY/WX    TMP DP  RH WIND       PRES   REMARKS
IRON MOUNTAIN  MOSUNNY   69  49  48 N10       29.96S
MARINETTE      PTSUNNY   66  55  68 E8        29.95S
OCONTO         PTSUNNY   66  58  74 E5        29.94S
$$

WIZ017-030-035>037-045-050100-
CENTRAL WISCONSIN

CITY           SKY/WX    TMP DP  RH WIND       PRES   REMARKS
MEDFORD        PTSUNNY   70  54  57 NW3       29.98F
WAUSAU         PTSUNNY   74  51  44 NW7       29.96S
MOSINEE        MOSUNNY   72  54  53 NW9       29.99S
MARSHFIELD     SUNNY     74  51  44 N10       29.97F
WISC RAPIDS    MOSUNNY   76  49  38 NW8       29.98S
STEVENS POINT  SUNNY     72  51  48 NW6       29.97F
WAUPACA        SUNNY     77  50  39 NW7       29.96S
SHAWANO        CLOUDY    74  53  47 N6        29.96S
CLINTONVILLE   PTSUNNY   73  50  43 NW7       29.95S
$$

WIZ038-039-048-051-050100-
FOX VALLEY

CITY           SKY/WX    TMP DP  RH WIND       PRES   REMARKS
NWS GREEN BAY  MOSUNNY   75  57  53 NW5       29.94S
APPLETON       MOSUNNY   73  50  43 N10       29.96S
OSHKOSH        SUNNY     75  53  46 NW10      29.94F
FOND DU LAC    SUNNY     76  53  44 N9        29.95S
$$

WIZ022-050-052-050100-
EAST CENTRAL WISCONSIN

CITY           SKY/WX    TMP DP  RH WIND       PRES   REMARKS
STURGEON BAY   CLOUDY    66  55  68 E6        29.97F
MANITOWOC      PTSUNNY   72  59  63 MISG      29.94S
SHEBOYGAN      PTSUNNY   76  55  48 N9        29.94S
$$

LMZ563-521-522-541>543-050100-
LAKESHORE

STATION/POSITION TIME  TEMP    WIND        PRES    VSBY  WAVE
                       AIR SEA DIR/SP/G                  HT/PER
                 (UTC) (F)     (DEG/KT/KT) (MB)    (MI)  (FT/S)
SHEBOYGAN LKSHOR 0000   75     320/ 10/ 12 1013.8S
KEWAUNEE LKSHORE 2300   63     180/ 10/ 11 1013.3F
ALGOMA MARINA    2342           60/  6/  7   N/A
NORTHPORT PIER   2300   65     100/  4/  7 1014.2R
N MID LAKE BUOY  2350   64 69  300/  4/  6 1014.6R         0
SISTER BAY LKSHO 2318   68      20/  6/ 10   N/A
CHAMBERS ISLAND  2300   67      40/  7/  8 1014.2R
MENOMINEE LKSHOR 2300   67      80/  4/  5 1015.0R
$$



USA.gov is the U.S. government's official web portal to all federal, state and local government web resources and services.